WEATHER DATA

TODAY
Time Temp. Dewp. Hum. Bar. 1h Prec. 24h Prec.
00:04 2.3 2.3 100 1007.5 0.0000 0.0000
00:15 2.2 2.2 100 1007.4 0.0000 0.0000
00:25 2.2 2.2 100 1007.6 0.0000 0.0000
00:35 2.2 2.2 100 1007.5 0.0000 0.0000
00:45 2.3 2.3 100 1007.6 0.0000 0.0000
00:55 2.2 2.2 100 1007.8 0.0000 0.0000
01:05 2.2 2.2 100 1007.8 0.0000 0.0000
01:15 2.2 2.2 100 1007.8 0.0000 0.0000
01:26 2.2 2.2 100 1008.2 0.0000 0.0000
01:35 2.2 2.2 100 1008.1 0.0000 0.0000
01:56 2.4 2.4 100 1008 0.0000 0.0000
02:06 2.4 2.4 100 1008 0.0000 0.0000
02:16 2.4 2.4 100 1007.6 0.0000 0.0000
02:25 2.5 2.4 99 1007.5 0.0000 0.0000
02:36 2.4 2 97 1007.2 0.0000 0.0000
02:46 2.6 1.9 95 1007.2 0.0000 0.0000
02:56 2.6 1.4 92 1007.3 0.0000 0.0000
03:06 2.7 1.7 93 1007 0.0000 0.0000
03:16 2.7 1.7 93 1006.7 0.0000 0.0000
03:26 2.6 1.6 93 1006.9 0.0000 0.0000
03:36 2.6 1.6 93 1007.2 0.0000 0.0000
03:47 2.6 1.6 93 1007.3 0.0000 0.0000
03:56 2.5 1.5 93 1007.3 0.0000 0.0000
04:06 2.4 1.4 93 1007.2 0.0000 0.0000
04:16 2.3 1.4 94 1006.8 0.0000 0.0000
04:27 2.3 1.6 95 1006.8 0.0000 0.0000
04:36 2.2 1.5 95 1006.9 0.0000 0.0000
04:46 2.1 1.5 96 1006.8 0.0000 0.0000
04:57 2 1.4 96 1006.7 0.0000 0.0000
05:07 1.9 1.5 97 1006.7 0.0000 0.0000
05:16 2 1.6 97 1006.5 0.0000 0.0000
05:27 1.9 1.5 97 1006.6 0.0000 0.0000
05:37 1.9 1.5 97 1006.6 0.0000 0.0000
05:47 1.9 1.5 97 1006.5 0.0000 0.0000
06:02 1.8 1.4 97 1006.5 0.0000 0.0000
06:12 1.7 1.3 97 1006.6 0.0000 0.0000
06:22 1.6 1.3 98 1006.6 0.0000 0.0000
06:32 1.5 1.2 98 1006.7 0.0000 0.0000
06:42 1.5 1.2 98 1006.9 0.0000 0.0000
06:52 1.5 1.2 98 1007 0.0000 0.0000
07:07 1.5 1.2 98 1007.2 0.0000 0.0000
07:18 1.5 1.4 99 1007.3 0.0000 0.0000
07:28 1.6 1.5 99 1007.3 0.0000 0.0000
07:37 1.6 1.5 99 1007.3 0.0000 0.0000
07:48 1.6 1.5 99 1007.3 0.0000 0.0000
07:58 1.6 1.5 99 1007.4 0.0000 0.0000
08:08 1.6 1.5 99 1007.4 0.0000 0.0000
08:17 1.6 1.5 99 1007.4 0.0000 0.0000
08:28 1.6 1.5 99 1007.5 0.0000 0.0000
08:38 1.6 1.5 99 1007.6 0.0000 0.0000
08:48 1.6 1.5 99 1007.6 0.0000 0.0000
08:58 1.7 1.6 99 1007.7 0.0000 0.0000
09:08 1.8 1.7 99 1007.7 0.0000 0.0000
09:18 1.8 1.7 99 1007.8 0.0000 0.0000
09:28 1.9 1.8 99 1008 0.0000 0.0000
09:48 2 1.7 98 1008 0.0000 0.0000
09:58 2.1 1.8 98 1008.2 0.0000 0.0000
10:09 2.2 1.9 98 1008.2 0.0000 0.0000
10:19 2.3 1.9 97 1008.2 0.0000 0.0000
10:29 2.5 2.1 97 1008.3 0.0000 0.0000
10:38 2.6 1.9 95 1008.2 0.0000 0.0000
10:49 2.7 1.8 94 1008.1 0.0000 0.0000
10:59 2.8 1.9 94 1008.1 0.0000 0.0000
11:09 2.9 1.9 93 1008 0.0000 0.0000
11:19 3 2 93 1008.1 0.0000 0.0000
11:29 3 2 93 1008 0.0000 0.0000
11:39 3.1 2.1 93 1007.8 0.0000 0.0000
11:49 3.1 2.1 93 1007.8 0.0000 0.0000
12:00 3.3 2.1 92 1007.8 0.0000 0.0000
12:09 3.4 2.1 91 1007.7 0.0000 0.0000
12:30 3.6 1.8 88 1007.5 0.0000 0.0000
12:49 3.7 1.9 88 1007.3 0.0000 0.0000
12:59 3.7 1.7 87 1007.2 0.0000 0.0000

DAY STATISTIC

2019-01-18
TEMPERATURE
AVERAGE
2.3
HIGH
3.7
12:49
LOW
1.5
06:32
PRESSURE
AVERAGE
1007.4
HIGH
1008.3
10:29
LOW
1006.5
05:16
DEWPOINT
AVERAGE
1.8
HIGH
2.4
01:56
LOW
1.2
06:32
HUMIDITY
AVERAGE
97
HIGH
100
00:04
LOW
87
12:59
PRECIPITATION
RAIN HOUR
0.0
RAIN DAY
0.0
TEMPERATURE (°C)
LOW
1.5
HIGH
3.7
AVERAGE
2.3
PRESSURE (hpa)
LOW
1006.5
HIGH
1008.3
AVERAGE
1007.4
DEVICE